Regional Weather Roundup
Issued by NWS Grand Forks, ND

Home | Current Version | Previous Version | Graphics & Text | Print | Product List | Glossary On
Versions: 1 2 3 4 5 6 7 8 9 10 11 12 13 14 15 16 17 18 19 20 21 22 23 24 25 26 27 28 29 30 31 32 33 34 35 36 37 38 39 40 41 42 43 44 45 46 47 48 49 50
000
ASUS43 KFGF 250631
RWRFGF
PRAIRIE TO PINES  WEATHER ROUNDUP
NATIONAL WEATHER SERVICE EASTERN NORTH DAKOTA/GRAND FORKS ND
100 AM CDT SAT MAR 25 2017

 **SATELLITE DATA USED TO AUGMENT SKY COVER AT AUTOMATED STATIONS**
 *****  WEATHER ACROSS EASTERN NORTH DAKOTA  *****

CITY           SKY/WX    TMP DP  RH WIND       PRES   REMARKS
GRAND FORKS    FAIR      29  28  96 NW6       30.22S WCI  23
6HR MIN TEMP:  28; 6HR MAX TEMP:  35;

GRAND FRKS AFB FAIR      27  27  99 N3        30.22F
DEVILS LAKE    CLOUDY    29  26  89 SE12      30.20R WCI  19
6HR MIN TEMP:  29; 6HR MAX TEMP:  32;

FARGO          FAIR      29  27  92 CALM      30.22R
WAHPETON ARPT    N/A     30  28  93 NE3       30.22R
$$

 ***** WEATHER ACROSS CENTRAL AND WESTERN NORTH DAKOTA  *****

CITY           SKY/WX    TMP DP  RH WIND       PRES   REMARKS
BISMARCK       FAIR      30  28  92 E8        30.14S WCI  22
6HR MIN TEMP:  30; 6HR MAX TEMP:  43;

MINOT          CLOUDY    32  29  88 SE14      30.07F WCI  22
6HR MIN TEMP:  30; 6HR MAX TEMP:  37;

JAMESTOWN      MOCLDY    29  27  92 SE7       30.19S WCI  22
6HR MIN TEMP:  29; 6HR MAX TEMP:  34;

MINOT AFB      CLOUDY    30  28  93 SE15      30.07F WCI  19
GARRISON         N/A     29  28  96 SE10      30.07F WCI  20
WILLISTON      FAIR      43  34  70 SE16G22   29.94F
6HR MIN TEMP:  43; 6HR MAX TEMP:  53;

DICKINSON      FAIR      36  30  79 SE15      29.98F
6HR MIN TEMP:  36; 6HR MAX TEMP:  54;

HETTINGER      FAIR      38  31  76 SE13      30.02F
6HR MIN TEMP:  38; 6HR MAX TEMP:  56;

$$

 *****  OTHER AIRPORT OBSERVATIONS IN OUR AREA  *****

CITY           SKY/WX    TMP DP  RH WIND       PRES   REMARKS
WALHALLA       NOT AVBL
GRAFTON AIRPOR FAIR      28  28 100 CALM      30.24F
VALLEY CITY AR FAIR      27  27 100 CALM      30.22R
CANDO          NOT AVBL
CAVALIER APRT    N/A     28  27  93 CALM      30.23R
GWINNER        CLEAR     27  27 100 MISG      30.21S
SHEYENNE NWR     N/A     27  25  93 NE2       29.95S
ROLLA          CLOUDY    27  27 100 S14       30.16R WCI  15
 ***** THE ABOVE OBSERVATIONS ARE NON NWS ARE NOT QUALITY
       CONTROLLED AND MAY MIS-REPORT RAIN FOR SNOW...
$$

  *****  WEATHER ACROSS NORTHERN MINNESOTA  *****

CITY           SKY/WX    TMP DP  RH WIND       PRES   REMARKS
FLAG ISLAND    FAIR      30  25  80 E3        30.23S
WARROAD        FAIR      28  27  93 NE7       30.23S WCI  21
ROSEAU         FAIR      27  21  80 E3        30.22F
HALLOCK        FAIR      30  28  93 CALM      30.22F
THF RVR FALLS  NOT AVBL
BAUDETTE       FAIR      28  23  81 E7        30.22F WCI  21
6HR MIN TEMP:  28; 6HR MAX TEMP:  37;

WASKISH        CLOUDY    34  28  80 E3        30.22S
CROOKSTON      FAIR      30  28  93 E5        30.22S
STEPHEN NDAWN    N/A     30  28  93 NE2         N/A
GREENBUSH NDAW   N/A     30  27  86 E3          N/A
$$
  *****  WEATHER ACROSS CENTRAL AND WEST MINNESOTA  *****

CITY           SKY/WX    TMP DP  RH WIND       PRES   REMARKS
FOSSTON        FAIR      25  25 100 CALM      30.22R
BEMIDJI        CLOUDY    34  29  83 E6        30.21S
PARK RAPIDS    CLOUDY    37  27  67 E8        30.20R
6HR MIN TEMP:  37; 6HR MAX TEMP:  40;

ELBOW LAKE     FAIR      31  29  93 CALM      30.21S
6HR MIN TEMP:  30; 6HR MAX TEMP:  42;

WADENA         CLOUDY    36  28  75 E6        30.20S
DETROIT LAKES  MOCLDY    32  30  93 SE3       30.22R
MOORHEAD       FAIR      28  28 100 CALM      30.23S
FERGUS FALLS   FAIR      30  27  86 CALM      30.25S
MORRIS MN      CLOUDY    34  30  86 E7        30.19S
STAPLES        CLOUDY    36  28  75 E3        30.22R
$$
  *****  WEATHER ELSEWHERE ACROSS MINNESOTA  *****

CITY           SKY/WX    TMP DP  RH WIND       PRES   REMARKS
DULUTH         CLOUDY    33  31  92 E13       30.22S WCI  24
6HR MIN TEMP:  33; 6HR MAX TEMP:  35; 6HR PCP: TRACE;

INTRNTL FALLS  CLOUDY    34  27  75 E5        30.24S
6HR MIN TEMP:  34; 6HR MAX TEMP:  38;

ELY            CLOUDY    32  28  86 SE7       30.24S
CLOQUET        CLOUDY    34  30  86 E10       30.22R
WHEATON          N/A     28  28 100 CALM      30.23S FOG
BRAINERD       CLOUDY    36  31  82 NE5       30.22R
6HR MIN TEMP:  34; 6HR MAX TEMP:  39;

HIBBING        CLOUDY    32  31  96 E6        30.22S
6HR MIN TEMP:  32; 6HR MAX TEMP:  35; 6HR PCP: TRACE;

ALEXANDRIA     FAIR      34  29  82 E7        30.20R
6HR MIN TEMP:  34; 6HR MAX TEMP:  41;

SAINT CLOUD    CLOUDY    36  32  85 NE5       30.20R
6HR MIN TEMP:  36; 6HR MAX TEMP:  39;

MINNEAPOLIS    CLOUDY    39  31  72 NE9       30.19R
6HR MIN TEMP:  39; 6HR MAX TEMP:  42;

$$

  *****  WEATHER ACROSS SOUTH DAKOTA  *****

CITY           SKY/WX    TMP DP  RH WIND       PRES   REMARKS
SIOUX FALLS    CLOUDY    37  34  89 NE13      30.11F
6HR MIN TEMP:  37; 6HR MAX TEMP:  40;

BROOKINGS      CLOUDY    35  32  88 E12       30.14F
WATERTOWN      CLOUDY    32  31  96 NE6       30.15F
6HR MIN TEMP:  32; 6HR MAX TEMP:  39;

HURON          CLOUDY    38  34  85 E7        30.16F
6HR MIN TEMP:  32; 6HR MAX TEMP:  45;

SISSETON         N/A     29  28  96 NW6       30.19S WCI  23
ABERDEEN       FAIR      27  24  89 N3        30.20F
6HR MIN TEMP:  26; 6HR MAX TEMP:  46;

MITCHELL       CLOUDY    39  35  86 NE8       30.16R
PIERRE         FAIR      30  27  88 NE5       30.14F
6HR MIN TEMP:  30; 6HR MAX TEMP:  53;

MOBRIDGE       FAIR      34  28  79 SE12      30.13F
RAPID CITY     FAIR      38  29  70 S13       30.05F
6HR MIN TEMP:  37; 6HR MAX TEMP:  58;

$$

  *****  SOME WEATHER IN NEARBY STATES *****

CITY           SKY/WX    TMP DP  RH WIND       PRES   REMARKS
GLASGOW MT     MOCLDY    52  29  41 SE14      29.76F
6HR MIN TEMP:  50; 6HR MAX TEMP:  62;

GREAT FALLS MT FAIR      46  31  55 S16       29.82R
6HR MIN TEMP:  46; 6HR MAX TEMP:  62;

CHEYENNE WY    FAIR      30  23  75 SW8       30.11F WCI  22
6HR MIN TEMP:  30; 6HR MAX TEMP:  50;

SCOTTSBLUFF NE FAIR      34  27  75 E5        30.10F
6HR MIN TEMP:  33; 6HR MAX TEMP:  57;

OMAHA NE       CLOUDY    42  37  82 N14       29.95F
6HR MIN TEMP:  42; 6HR MAX TEMP:  44; 6HR PCP:  0.30;

DES MOINES IA  DRIZZLE   44  42  93 NE13      29.96F FOG
6HR MIN TEMP:  44; 6HR MAX TEMP:  48; 6HR PCP:  0.01;

DAVENPORT IA   CLOUDY    46  44  93 E17       29.99S FOG
6HR MIN TEMP:  47; 6HR MAX TEMP:  57; 6HR PCP:  0.28;

CHICAGO IL     CLOUDY    42  36  79 NE15      30.06R
6HR MIN TEMP:  42; 6HR MAX TEMP:  46; 6HR PCP: TRACE;

EAU CLAIRE WI  CLOUDY    38  33  82 NE9       30.17R
6HR MIN TEMP:  38; 6HR MAX TEMP:  40;

LA CROSSE WI   CLOUDY    40  37  89 NE5       30.15R
6HR MIN TEMP:  40; 6HR MAX TEMP:  43; 6HR PCP:  0.07;

$$

  *****  SOME NATIONAL WEATHER *****

CITY           SKY/WX    TMP DP  RH WIND       PRES   REMARKS
LA GUARDIA NY  CLOUDY    55  33  43 SW10      30.08F
6HR MIN TEMP:  52; 6HR MAX TEMP:  57;

RALEIGH NC     MOCLDY    59  48  67 SW15      30.33F
6HR MIN TEMP:  58; 6HR MAX TEMP:  65;

ATLANTA GA     MOCLDY    63  49  60 S16G23    30.26F
6HR MIN TEMP:  63; 6HR MAX TEMP:  71;

NEW ORLEANS LA CLOUDY    71  66  84 SE16      30.07F
6HR MIN TEMP:  71; 6HR MAX TEMP:  73;

OKLAHOMA CITY  LGT RAIN  53  50  89 NW25G33   29.79R
6HR MIN TEMP:  53; 6HR MAX TEMP:  68; 6HR PCP:  0.05;

ALBUQUERQUE NM FAIR      55  18  23 CALM      30.17S
6HR MIN TEMP:  54; 6HR MAX TEMP:  67;

SALT LAKE CITY MOCLDY    53  35  50 SE9       30.02S
6HR MIN TEMP:  51; 6HR MAX TEMP:  57;

LOS ANGELES CA FAIR      57  53  86 W13       30.17F
6HR MIN TEMP:  57; 6HR MAX TEMP:  62;

BOISE ID       FAIR



USA.gov is the U.S. government's official web portal to all federal, state and local government web resources and services.